Regional Weather Roundup
Issued by NWS San Diego, CA

Home | Current Version | Previous Version | Text Only | Print | Product List | Glossary On
Versions: 1 2 3 4 5 6 7 8 9 10 11 12 13 14 15 16 17 18 19 20 21 22 23 24 25 26 27
000
ASUS46 KSGX 261411
RWRSGX

SAN DIEGO HOURLY WEATHER ROUNDUP
NATIONAL WEATHER SERVICE SAN DIEGO CA
700 AM PDT THU MAY 26 2016

NOTE: "FAIR" INDICATES FEW OR NO CLOUDS BELOW 12,000 FEET WITH NO
SIGNIFICANT WEATHER AND/OR OBSTRUCTIONS TO VISIBILITY.

CAZ042-043-060-061-PZZ750-775-261500-

GREATER SAN DIEGO AREA

CITY           SKY/WX    TMP DP  RH WIND       PRES   REMARKS
LINDBERGH FLD  CLOUDY    63  52  67 SW7       30.09R
POINT LOMA       N/A     59  51  75 SW7         N/A
NATIONAL CITY    N/A     62  54  76 CALM      30.09R
CHULA VISTA      N/A     60  55  83 E3        30.01R
IMPERIAL BEACH CLOUDY    62  53  72 SE3       30.08R
BROWN FIELD    CLOUDY    58  52  80 SE5       30.08R
MIRAMAR MCAS   CLOUDY    61  50  67 E7        30.07R
MONTGOMERY FLD CLOUDY    59  50  72 E7        30.08R

$$

NORTH SAN DIEGO COUNTY

CITY           SKY/WX    TMP DP  RH WIND       PRES   REMARKS
CAMP PENDLETON CLOUDY    57  54  89 NE3       30.08R
OCEANSIDE AP   CLOUDY    60  51  72 E5        30.07R
OCEANSIDE HBR    N/A     60  55  83 NE1       30.09R
VISTA            N/A     58  52  81 CALM      30.06R
CARLSBAD       CLOUDY    59  53  80 SE5       30.07R
DEL MAR          N/A     58  53  84 CALM      30.10R
LA JOLLA SCRIP   N/A     58  53  82 NE6       30.07R
FALLBROOK        N/A     57  54  89 CALM      30.05R
ESCONDIDO        N/A     56  50  80 E1        30.09R
SAN MARCOS       N/A     56  47  72 SE1       30.06R
POWAY            N/A     55  51  88 CALM      30.10R

$$

EAST SAN DIEGO COUNTY

CITY           SKY/WX    TMP DP  RH WIND       PRES   REMARKS
RAMONA         CLOUDY    53  45  74 CALM      30.08R
SANTEE LAKES     N/A     54  51  88 CALM      30.08R
LA MESA          N/A     56  52  85 CALM      30.02R
DESCANSO N       N/A     44  42  93 CALM      29.99S
MT. LAGUNA OBS   N/A     47  32  56 NW5       29.67R
CAMPO            N/A     47  44  90 CALM      30.03S

$$

ORANGE COUNTY AND THE LOS ANGELES BASIN

CITY           SKY/WX    TMP DP  RH WIND       PRES   REMARKS
JOHN WAYNE AP  PTSUNNY   61  51  70 E7        30.07R
LAKE FOREST FR   N/A     55  48  78 CALM      29.97R
HUNTINGTON BCH   N/A     59  55  86 CALM      30.09R
LOS ALAMITOS   CLOUDY    60  51  74 NE5       30.07S
FULLERTON      CLOUDY    60  51  72 E6        30.07R
LONG BEACH     CLOUDY    59  53  80 E5        30.07R
L.A. AP        PTSUNNY   59  53  80 VRB5      30.07R
L.A. DOWNTOWN  PTSUNNY   59  50  72 E3        30.07R

$$

THE INLAND EMPIRE

CITY           SKY/WX    TMP DP  RH WIND       PRES   REMARKS
CORONA         SUNNY     52  48  86 CALM      30.09R
CHINO          MOSUNNY   55  50  83 CALM      30.09R
ONTARIO        MOSUNNY   55  48  77 CALM      30.08R
SAN BERNARDINO MOSUNNY   55  46  71 CALM      30.09
RIVERSIDE AP   SUNNY     55  49  80 CALM      30.08R
MORENO VALLEY    N/A     51  51  98 CALM      28.20R
MARCH ARB      PTSUNNY   52  52 100 SE3       30.08R
HORSETHIEF CYN   N/A     51  44  75 CALM      30.10R
PERRIS           N/A     52  51  96 CALM      30.09R
HEMET EAST       N/A     49  42  79 CALM      29.96R
FRENCH VALLEY  CLOUDY    52  45  76 CALM      30.08R
TEMECULA         N/A     52  48  85 CALM      30.05R

$$

SAN BERNARDINO AND RIVERSIDE COUNTY MOUNTAINS

CITY           SKY/WX    TMP DP  RH WIND       PRES   REMARKS
BIG BEAR AP    SUNNY     36  32  87 CALM      30.13R
ANGELUS OAKS     N/A     43  37  78 CALM      30.02R
PINE COVE        N/A     43  34  69 N2        30.09R

$$

SOUTHERN DESERT INCLUDING THE COACHELLA VALLEY

CITY           SKY/WX    TMP DP  RH WIND       PRES   REMARKS
PALM SPRINGS   SUNNY     64  43  46 CALM      29.95R
THOUSAND PALMS   N/A     63  45  50 NW21      29.92R
PALM DESERT      N/A     63  47  56 CALM        N/A
THERMAL        SUNNY     67  43  41 NW14      29.91R
BLYTHE         SUNNY     62  45  53 CALM      29.92R
IMPERIAL AP    SUNNY     63  43  48 W3        29.93R
EL CENTRO NAS  MOSUNNY   64  42  44 SW6       29.95R
YUMA AZ        SUNNY     63  43  48 W7        29.94R
MEXICALI       SUNNY     61  41  48 SW7       29.94

$$

UPPER DESERT

CITY           SKY/WX    TMP DP  RH WIND       PRES   REMARKS
VICTORVILLE AP SUNNY     55  39  54 CALM      30.04R
HESPERIA         N/A     51  42  71 W3        30.16R
PALMDALE       SUNNY     58  43  57 SW5       30.05R
LANCASTER      SUNNY     60  43  53 W17       30.04R
EDWARDS AFB    MOSUNNY   57  42  57 SW13      30.01R
DAGGETT        SUNNY     60  43  53 NW10      30.00R
29 PALMS N     SUNNY     61  41  47 NW15      30.05R
NEEDLES        SUNNY     68  38  33 CALM      29.91R

$$

REGIONAL REPORTS

CITY           SKY/WX    TMP DP  RH WIND       PRES   REMARKS
SANTA BARBARA  MOSUNNY   56  49  77 NE6       30.07R
SANDBERG       SUNNY     50  43  77 N16G26    30.11R
LAS VEGAS NV   SUNNY     63  36  36 S5        29.90R
PHOENIX AZ     MOSUNNY   67  38  34 SE9       29.92R
TIJUANA        CLOUDY    57  50  77 CALM      30.11R
ENSENADA NW      N/A     59  32  36 N2        30.06R

$$

OFFSHORE ISLANDS

CITY           SKY/WX    TMP DP  RH WIND       PRES   REMARKS
CATALINA ARPT  CLOUDY    53  51  93 E7        30.07R
SAN CLEMENTE I CLOUDY    59  53  80 W9        30.08R
SAN NICOLAS IS PTSUNNY   55  52  89 NW26G32   30.07R

$$

MARINE AND OFFSHORE BUOY REPORTS

STATION/POSITION SKY/WX   TEMP    WIND        PRES    SWELL
                          AIR SEA DIR/SP/G            HT/PER/DIR
                          (F)     (DEG/KT/KT) (MB)    (FT/S/D)
TANNER BANKS               58 61  310/ 19/ 23 1019.0R   2/350/15
S CLEMENTE BASIN           59 63  300/ 10/ 12 1018.3R   5/290/ 8
SAN NICOLAS IS.               59                N/A     2/300/11
SO. S. ROSA ISLA           56 56  320/ 23/ 31 1018.4R   2/ 70/14
W. S. BARBARA CH           55 54  320/ 21/ 27 1017.9F   2/310/ 9
M. S. BARBARA CH           57 58  300/  4/  6 1017.9R
S. MONICA BASIN            59 63   20/  4/  6 1018.5R   3/270/ 6
S PEDRO CHANNEL               63                N/A
OCEANSIDE OFFSHR              66                N/A     2/220/14
TORREY PINES OTR              65                N/A     2/230/17
LA JOLLA 1                 59 67   90/  7/  9 1017.7R
SAN DIEGO BAY                 69              1018.2R
POINT LOMA SOUTH              65                N/A     2/190/14

$$





USA.gov is the U.S. government's official web portal to all federal, state and local government web resources and services.